Location: Newark
(45.5167°N, 11.1667°E)
Time: 05:31:08
(UTC+00:00)

Explorer 7 - Pass Details

Date: 15 December 2019
Orbit: 485 x 679 km, 50.3° (Epoch: 26 January)

Event Time Altitude Azimuth Distance (km) Brightness Sun altitude
Rises 15:13:48 0° 266° (W) 2,980 11.7 1.8°
Reaches altitude 10° 15:16:11 10° 271° (W) 2,088 10.7 1.5°
Maximum altitude 15:20:56 53° 349° (N) 829 7.6 0.8°
Drops below altitude 10° 15:25:46 10° 67° (ENE) 2,119 9.2 0.1°
Sets 15:28:11 0° 72° (ENE) 3,029 10.0 -0.2°
